Location: Aurora Center
(43.5271°N, 98.5894°W)
Time: 18:45:31
(UTC-05:00)

Transit 4A - Visible Passes

Search period start: 19 April 2025 00:00
Search period end: 29 April 2025 00:00
Orbit: 863 x 978 km, 66.8° (Epoch: 18 April)

Date Brightness Start Highest point End Pass type
(mag) Time Alt. Az. Time Alt. Az. Time Alt. Az.
19 Apr 9.4 02:09:41 29° E 02:09:41 29° E 02:13:33 10° NE visible
19 Apr 8.4 03:53:09 45° WNW 03:54:06 49° NW 04:00:15 10° NNE visible
19 Apr 10.0 05:38:49 10° WNW 05:42:03 14° NNW 05:45:18 10° N visible
20 Apr 8.9 02:18:09 41° ENE 02:18:09 41° ENE 02:22:42 10° NE visible
20 Apr 8.9 04:01:37 32° WNW 04:03:08 36° NW 04:08:58 10° NNE visible
20 Apr 10.2 05:49:32 10° NW 05:51:29 11° NNW 05:53:27 10° N visible
21 Apr 8.4 02:26:36 56° ENE 02:26:36 56° ENE 02:31:42 10° NE visible
21 Apr 9.3 04:10:03 23° WNW 04:12:15 27° NW 04:17:36 10° NNE visible
22 Apr 10.2 00:51:32 13° ENE 00:51:32 13° ENE 00:52:35 10° ENE visible
22 Apr 8.1 02:35:00 70° NNE 02:35:00 70° NNE 02:40:35 10° NNE visible
22 Apr 9.7 04:18:27 16° WNW 04:21:28 21° NW 04:26:11 10° N visible
23 Apr 9.8 00:59:54 19° ENE 00:59:54 19° ENE 01:02:16 10° NE visible
23 Apr 8.2 02:43:21 61° NW 02:43:21 61° NW 02:49:24 10° NNE visible
23 Apr 10.0 04:26:49 10° WNW 04:30:46 17° NNW 04:34:41 10° N visible
24 Apr 9.4 01:08:13 28° ENE 01:08:13 28° ENE 01:11:34 10° NE visible
24 Apr 8.6 02:51:40 44° WNW 02:52:04 45° NW 02:58:08 10° NNE visible
24 Apr 10.2 04:37:12 10° NW 04:40:08 13° NNW 04:43:03 10° N visible
25 Apr 8.9 01:16:29 39° ENE 01:16:29 39° ENE 01:20:41 10° NE visible
25 Apr 9.1 02:59:56 31° WNW 03:01:07 33° NW 03:06:50 10° NNE visible
25 Apr 10.4 04:48:08 10° NW 04:49:35 11° NNW 04:51:01 10° N visible
26 Apr 8.4 01:24:42 55° NE 01:24:42 55° NE 01:29:38 10° NE visible
26 Apr 9.5 03:08:09 22° WNW 03:10:17 26° NW 03:15:27 10° NNE visible
26 Apr 10.0 23:49:26 14° ENE 23:49:26 14° ENE 23:50:47 10° ENE visible
27 Apr 8.2 01:32:52 69° N 01:32:52 69° N 01:38:30 10° NNE visible
27 Apr 9.9 03:16:19 14° WNW 03:19:30 20° NW 03:24:00 10° N visible
27 Apr 9.5 23:57:32 22° ENE 23:57:32 22° ENE 00:00:21 10° NE visible
28 Apr 8.4 01:40:58 57° WNW 01:41:03 57° NW 01:47:18 10° NNE visible
28 Apr 10.2 03:25:07 10° WNW 03:28:48 16° NNW 03:32:29 10° N visible
